COSMOS 1275 DEB

基本信息
目录编号:
17025
目录名称:
COSMOS 1275 DEB
国际标识:
1981-053KF
轨道中心:
EARTH
物体状态:
在轨
发射日期:
1981-06-04 UTC
轨道信息
数据来源: 国际轨道数据
星历时间: 2026-09-05T15:16:48+0800
半长轴: 7332.94km
偏心率: 0.0072864
轨道倾角: 82.829°
近地点辐角: 183.619°
升交点赤经: 11.114°
平近点角: 206.200°
近地点: 901.372km
远地点: 1008.234km
周期: 104.154分钟
每日圈数: 13.825651
详细信息
发射场:
PKMTR
轨道高度:
LEO
数据来源:
AOE Integration Group
参考系:
TEME
时间系统:
UTC
历元类型:
SGP4
2D轨道图
3D轨道图
轨道高度分析图
轨道倾角分析图
轨道综合分析图
查看轨道综合分析图